Weather History for KGFK - December, 2013

Change the Weather History Date:

Sunday, December 1, 2013

  Actual Average Record
Temperature  
Mean Temperature 21 °F 17 °F  
Max Temperature 22 °F 26 °F 54 °F (1969)
Min Temperature 19 °F 8 °F -17 °F (1978)
Degree Days  
Heating Degree Days 44 48  
Month to date heating degree days 44 48  
Since 1 July heating degree days 2155 2247  
Cooling Degree Days 0 0  
Month to date cooling degree days 0 0  
Year to date cooling degree days 487 379  
Moisture  
Dew Point 18 °F    
Average Humidity 88    
Maximum Humidity 92    
Minimum Humidity 84    
Precipitation  
Precipitation 0.10 in 0.02 in 0.23 in (2007)
Month to date precipitation 0.10 0.02  
Year to date precipitation 18.93 20.22  
Snow  
Snow 1.10 in 0.30 in 6.50 in (2007)
Month to date snowfall 1.1 0.3  
Since 1 July snowfall 2.7 9.5  
Snow Depth 1.00 in    
Sea Level Pressure  
Sea Level Pressure 30.03 in    
Wind  
Wind Speed 6 mph (ESE)    
Max Wind Speed 14 mph    
Max Gust Speed 17 mph    
Visibility 6 miles    
Events Fog , Snow    
T = Trace of Precipitation, MM = Missing Value Source: NWS Daily Summary

Daily Weather History Graph

Daily Weather History Graph

Search for Another Location

Airport or City:

Trip Planner

Search our weather history database for the weather conditions in past years. The results will help you decide how hot, cold, wet, or windy it might be!

Date:

Astronomy

Dec. 01, 2013 Rise Set
Actual Time 7:57 AM CST 4:37 PM CST
Civil Twilight 7:22 AM CST 5:13 PM CST
Nautical Twilight 6:43 AM CST 5:52 PM CST
Astronomical Twilight 6:05 AM CST 6:29 PM CST
Moon 6:11 AM CST (12/1) 3:53 PM CST (12/1)
Length of Visible Light 9h 51m
Length of Day
8h 40m
Waning Crescent, 2% of the Moon is Illuminated
Dec 1
Waning Crescent
Dec 2
New
Dec 9
First Quarter
Dec 17
Full
Dec 25
Last Quarter

Hourly Weather History & Observations

Time (CST) Temp. Windchill Dew Point Humidity Pressure Visibility Wind Dir Wind Speed Gust Speed Precip Events Conditions
12:53 AM 21.0 °F - 17.1 °F 85% 30.24 in 10.0 mi Calm Calm - N/A   Overcast
1:53 AM 21.0 °F - 17.1 °F 85% 30.23 in 10.0 mi Calm Calm - N/A   Overcast
2:53 AM 19.9 °F - 17.1 °F 89% 30.25 in 10.0 mi Calm Calm - N/A   Overcast
3:53 AM 19.9 °F - 17.1 °F 89% 30.24 in 10.0 mi Calm Calm - N/A   Overcast
4:53 AM 19.9 °F - 17.1 °F 89% 30.23 in 10.0 mi Calm Calm - N/A   Overcast
5:53 AM 19.9 °F 14.9 °F 17.1 °F 89% 30.21 in 10.0 mi SW 3.5 mph - N/A   Overcast
6:53 AM 19.0 °F - 17.1 °F 92% 30.20 in 10.0 mi Calm Calm - N/A   Overcast
7:53 AM 19.0 °F - 17.1 °F 92% 30.20 in 9.0 mi Calm Calm - N/A   Overcast
8:53 AM 19.0 °F 12.3 °F 17.1 °F 92% 30.19 in 6.0 mi SE 4.6 mph - N/A   Overcast
9:53 AM 19.0 °F 11.1 °F 17.1 °F 92% 30.18 in 8.0 mi South 5.8 mph - N/A   Overcast
10:53 AM 19.9 °F 12.1 °F 17.1 °F 89% 30.18 in 6.0 mi SSE 5.8 mph - N/A   Overcast
11:53 AM 19.0 °F 11.1 °F 17.1 °F 92% 30.15 in 6.0 mi South 5.8 mph - N/A   Overcast
12:53 PM 19.9 °F 9.3 °F 17.1 °F 89% 30.10 in 8.0 mi SE 9.2 mph - N/A   Overcast
1:53 PM 19.9 °F 8.6 °F 17.1 °F 89% 30.07 in 8.0 mi SE 10.4 mph - N/A   Overcast
2:53 PM 19.9 °F 9.3 °F 17.1 °F 89% 30.04 in 10.0 mi SE 9.2 mph - N/A   Overcast
3:53 PM 21.0 °F 9.9 °F 17.1 °F 85% 30.02 in 9.0 mi SE 10.4 mph - N/A   Overcast
4:53 PM 21.0 °F 11.4 °F 18.0 °F 88% 30.00 in 10.0 mi ESE 8.1 mph - N/A   Overcast
5:41 PM 21.2 °F 10.9 °F 17.6 °F 86% 29.93 in 4.0 mi ESE 9.2 mph - 0.00 in Snow Light Snow
5:53 PM 21.9 °F 12.5 °F 18.0 °F 85% 29.98 in 6.0 mi ESE 8.1 mph - 0.00 in Snow Light Snow
6:53 PM 21.9 °F 11.0 °F 18.0 °F 85% 29.96 in 7.0 mi ESE 10.4 mph - 0.00 in Snow Light Snow
7:53 PM 21.9 °F 12.5 °F 18.0 °F 85% 29.94 in 3.0 mi East 8.1 mph - 0.00 in Snow Light Snow
7:57 PM 21.2 °F 10.9 °F 17.6 °F 86% 29.89 in 2.0 mi East 9.2 mph - 0.01 in Snow Light Snow
8:36 PM 21.2 °F 11.7 °F 19.4 °F 93% 29.88 in 0.5 mi East 8.1 mph - 0.03 in Fog , Snow Snow
8:50 PM 21.2 °F 12.6 °F 19.4 °F 93% 29.88 in 0.5 mi East 6.9 mph - 0.05 in Snow Snow
8:53 PM 21.9 °F 12.5 °F 19.0 °F 89% 29.93 in 0.5 mi East 8.1 mph - 0.05 in Snow Snow
9:06 PM 21.2 °F 10.9 °F 19.4 °F 93% 29.87 in 1.0 mi East 9.2 mph - 0.03 in Snow Light Snow
9:24 PM 21.2 °F 11.7 °F 19.4 °F 93% 29.87 in 1.0 mi East 8.1 mph - 0.03 in Snow Light Snow
9:41 PM 21.2 °F 10.9 °F 19.4 °F 93% 29.86 in 2.0 mi East 9.2 mph - 0.04 in Snow Light Snow
9:53 PM 21.9 °F 11.0 °F 19.0 °F 89% 29.91 in 2.0 mi East 10.4 mph - 0.04 in Snow Light Snow
10:07 PM 21.2 °F 9.5 °F 19.4 °F 93% 29.84 in 2.0 mi East 11.5 mph - 0.00 in Snow Light Snow
10:53 PM 21.9 °F 11.0 °F 19.0 °F 89% 29.88 in 2.0 mi East 10.4 mph - 0.00 in Snow Light Snow
11:10 PM 21.2 °F 9.5 °F 19.4 °F 93% 29.83 in 4.0 mi East 11.5 mph - 0.00 in Snow Light Snow
11:53 PM 21.9 °F 9.8 °F 19.0 °F 89% 29.86 in 4.0 mi East 12.7 mph - 0.01 in Snow Light Snow